Powrót do katalogu

IRIDIUM 33 DEB

LostPO
NORAD 46980·DEBRIS·🇺🇸 United States

Wystrzelony Sep 14, 1997 z Baikonur Cosmodrome

Loading…

Następne Przeloty (najbliższe 24 godziny)

TLE

NieaktualneSource: Space-Track

Epoka: Aug 14, 2025, 06:23 UTC

1 46980U 97051ACN 25226.26621915  .00139230  00000-0  51170-2 0  9992
2 46980  86.3495  58.2860 0005231 142.2426 217.9189 15.27314682572612

Śledź IRIDIUM 33 DEB w czasie rzeczywistym z AllMySat

Download on the App Store